MORELOS 3

Last updated on Thu Nov 21 2024 00:02:43 GMT+0000 (Coordinated Universal Time)

1 40946U 15056A 24325.27281990 -.00000045 00000+0 00000+0 0 9992 2 40946 2.9803 357.2101 0001419 184.0314 223.6758 1.00272584 33538
UTC large
Height (km)
Speed (km/s)
/
Latitude / Longitude
Inclination (degrees)
Orbital Period (minutes)
Azimuth
Elevation
Range (km)
Doppler Factor

Next 0 passes for location: London (51.5072 / 0.1276)

Sorry there are no passes over London.